TimeEST,TemperatureF,Dew PointF,Humidity,Sea Level PressureIn,VisibilityMPH,Wind Direction,Wind SpeedMPH,Gust SpeedMPH,PrecipitationIn,Events,Conditions,WindDirDegrees,DateUTC
12:51 AM,29.1,16.2,58,31.05,10.0,Calm,Calm,-,N/A,,Mostly Cloudy,0,2014-02-05 05:51:00
1:51 AM,28.0,19.0,69,31.05,10.0,Calm,Calm,-,N/A,,Clear,0,2014-02-05 06:51:00
2:51 AM,28.0,17.1,63,31.03,10.0,Calm,Calm,-,N/A,,Clear,0,2014-02-05 07:51:00
3:51 AM,28.0,17.1,63,31.01,10.0,Calm,Calm,-,N/A,,Clear,0,2014-02-05 08:51:00
4:51 AM,28.0,15.1,58,30.97,10.0,Calm,Calm,-,N/A,,Partly Cloudy,0,2014-02-05 09:51:00
5:12 AM,28.4,15.8,59,30.20,10.0,Calm,Calm,-,N/A,,Mostly Cloudy,0,2014-02-05 10:12:00
5:40 AM,26.6,17.6,69,30.19,2.5,NE,3.5,-,0.00,Snow,Light Snow,50,2014-02-05 10:40:00
5:51 AM,26.1,21.0,81,30.96,1.0,Calm,Calm,-,0.00,Snow,Light Snow,0,2014-02-05 10:51:00
5:57 AM,24.8,21.2,86,30.18,0.8,Calm,Calm,-,0.00,Snow,Light Snow,0,2014-02-05 10:57:00
6:05 AM,24.8,21.2,86,30.18,0.5,Calm,Calm,-,0.00,Fog-Snow,Light Snow,0,2014-02-05 11:05:00
6:29 AM,24.8,23.0,93,30.17,0.8,Calm,Calm,-,0.00,Snow,Light Snow,0,2014-02-05 11:29:00
6:51 AM,25.2,24.1,96,30.94,0.5,Calm,Calm,-,0.00,Fog-Snow,Light Snow,0,2014-02-05 11:51:00
7:03 AM,24.8,24.8,100,30.16,0.5,Calm,Calm,-,0.00,Fog-Snow,Light Snow,0,2014-02-05 12:03:00
7:18 AM,24.8,24.8,100,30.16,0.2,Calm,Calm,-,0.00,Fog-Snow,Light Snow,0,2014-02-05 12:18:00
7:51 AM,25.2,24.1,96,30.92,0.2,Calm,Calm,-,0.00,Fog-Snow,Snow,0,2014-02-05 12:51:00
8:17 AM,24.8,24.8,100,30.14,0.2,Calm,Calm,-,0.00,Fog-Snow,Snow,0,2014-02-05 13:17:00
8:51 AM,26.1,25.2,96,30.86,0.2,Calm,Calm,-,0.00,Fog-Snow,Snow,0,2014-02-05 13:51:00
9:51 AM,25.2,23.0,91,30.81,0.2,NE,8.1,16.1,0.00,Fog-Snow,Snow,50,2014-02-05 14:51:00
10:51 AM,24.1,22.1,92,30.74,0.2,Variable,6.9,-,0.00,Fog-Snow,Snow,0,2014-02-05 15:51:00
10:58 AM,24.8,21.2,86,29.96,0.5,NNE,9.2,-,0.00,Fog-Snow,Snow,30,2014-02-05 15:58:00
11:09 AM,24.8,21.2,86,29.93,0.5,NNE,6.9,-,0.00,Fog-Snow,Snow,30,2014-02-05 16:09:00
11:20 AM,24.8,21.2,86,29.94,0.8,North,8.1,-,0.00,Snow,Snow,360,2014-02-05 16:20:00
11:34 AM,24.8,21.2,86,29.92,0.5,North,9.2,-,0.00,Fog-Snow,Snow,10,2014-02-05 16:34:00
11:43 AM,24.8,21.2,86,29.90,0.5,North,6.9,16.1,0.00,Fog-Snow,Snow,10,2014-02-05 16:43:00
11:51 AM,24.1,21.0,88,30.65,0.5,NNE,10.4,-,0.00,Fog-Snow,Snow,20,2014-02-05 16:51:00
11:56 AM,24.8,21.2,86,29.88,0.8,NNE,11.5,-,0.00,Snow,Snow,20,2014-02-05 16:56:00
12:04 PM,24.8,21.2,86,29.86,1.0,NNE,10.4,17.3,0.00,Snow,Snow,30,2014-02-05 17:04:00
12:08 PM,24.8,21.2,86,29.84,1.5,NNE,10.4,-,0.00,Snow,Snow,20,2014-02-05 17:08:00
12:17 PM,24.8,21.2,86,29.83,2.0,NNE,8.1,-,0.00,Snow,Snow,20,2014-02-05 17:17:00
12:22 PM,24.8,21.2,86,29.83,1.2,North,8.1,-,0.00,Snow,Snow,10,2014-02-05 17:22:00
12:26 PM,24.8,21.2,86,29.83,0.8,North,9.2,-,0.00,Snow,Snow,10,2014-02-05 17:26:00
12:51 PM,24.1,21.0,88,30.56,0.8,North,6.9,-,0.00,Snow,Snow,10,2014-02-05 17:51:00
1:02 PM,24.8,21.2,86,29.77,1.0,North,8.1,-,0.00,Snow,Snow,10,2014-02-05 18:02:00
1:08 PM,24.8,21.2,86,29.77,0.8,North,6.9,-,0.00,Snow,Snow,10,2014-02-05 18:08:00
1:19 PM,24.8,21.2,86,29.76,0.5,Variable,6.9,-,0.00,Fog-Snow,Snow,0,2014-02-05 18:19:00
1:30 PM,24.8,21.2,86,29.75,0.5,North,5.8,-,0.00,Fog-Snow,Snow,10,2014-02-05 18:30:00
1:39 PM,24.8,21.2,86,29.75,0.2,North,10.4,-,0.00,Fog-Snow,Snow,10,2014-02-05 18:39:00
1:51 PM,24.1,22.1,92,30.49,0.2,North,12.7,19.6,0.00,Fog-Snow,Snow,10,2014-02-05 18:51:00
1:55 PM,24.8,21.2,86,29.73,0.5,NNE,9.2,-,0.00,Fog-Snow,Snow,20,2014-02-05 18:55:00
2:24 PM,24.8,21.2,86,29.71,0.8,North,8.1,-,0.00,Snow,Light Snow,360,2014-02-05 19:24:00
2:31 PM,24.8,21.2,86,29.70,0.8,North,6.9,-,0.00,Snow,Light Snow,360,2014-02-05 19:31:00
2:51 PM,24.1,22.1,92,30.44,0.8,North,9.2,-,0.00,Snow,Light Snow,360,2014-02-05 19:51:00
3:51 PM,24.1,22.1,92,30.51,0.5,North,11.5,-,0.00,Fog-Snow,Light Snow,350,2014-02-05 20:51:00
4:32 PM,24.8,23.0,93,29.73,0.8,North,8.1,-,0.00,Snow,Light Snow,360,2014-02-05 21:32:00
4:51 PM,25.2,22.1,88,30.48,0.8,North,9.2,-,0.00,Snow,Light Snow,360,2014-02-05 21:51:00
5:06 PM,24.8,21.2,86,29.72,1.0,North,11.5,-,0.00,Snow,Light Snow,360,2014-02-05 22:06:00
5:22 PM,24.8,21.2,86,29.71,1.5,North,8.1,-,0.00,Snow,Light Snow,360,2014-02-05 22:22:00
5:30 PM,24.8,21.2,86,29.71,3.0,North,9.2,-,0.00,Snow,Light Snow,360,2014-02-05 22:30:00
5:51 PM,24.1,21.0,88,30.48,6.0,North,9.2,-,0.00,Snow,Light Snow,360,2014-02-05 22:51:00
6:00 PM,24.8,21.2,86,29.73,7.0,North,9.2,-,0.00,Snow,Light Snow,360,2014-02-05 23:00:00
6:51 PM,23.0,19.0,85,30.50,10.0,North,10.4,-,0.00,Snow,Light Snow,360,2014-02-05 23:51:00
7:51 PM,23.0,18.1,82,30.54,10.0,North,9.2,-,0.00,,Overcast,350,2014-02-06 00:51:00
8:30 PM,23.0,17.6,80,29.79,10.0,North,8.1,-,0.00,Snow,Light Snow,360,2014-02-06 01:30:00
8:51 PM,23.0,18.1,82,30.58,6.0,North,9.2,-,0.00,Snow,Light Snow,360,2014-02-06 01:51:00
9:33 PM,23.0,19.4,86,29.84,3.0,North,8.1,-,0.00,Snow,Light Snow,350,2014-02-06 02:33:00
9:41 PM,23.0,19.4,86,29.84,2.0,North,6.9,-,0.00,Snow,Light Snow,350,2014-02-06 02:41:00
9:51 PM,23.0,19.0,85,30.62,3.0,Calm,Calm,-,0.00,Snow,Light Snow,0,2014-02-06 02:51:00
9:58 PM,23.0,19.4,86,29.85,3.0,North,8.1,-,0.00,Snow,Light Snow,350,2014-02-06 02:58:00
10:09 PM,23.0,19.4,86,29.86,3.0,North,6.9,-,0.00,Snow,Light Snow,360,2014-02-06 03:09:00
10:51 PM,23.0,19.0,85,30.66,4.0,North,6.9,-,0.00,Snow,Light Snow,360,2014-02-06 03:51:00
11:03 PM,23.0,19.4,86,29.91,6.0,North,6.9,-,0.00,Snow,Light Snow,350,2014-02-06 04:03:00
11:51 PM,23.0,19.0,85,30.72,5.0,North,5.8,-,0.00,Snow,Light Snow,360,2014-02-06 04:51:00